Weather History for KGWB - December, 2013

Change the Weather History Date:

Monday, December 2, 2013

  Actual Average (KFWA) Record (KFWA)
Temperature  
Mean Temperature 32 °F 34 °F  
Max Temperature 37 °F 41 °F 71 °F (1982)
Min Temperature 26 °F 27 °F 0 °F (1976)
Degree Days  
Heating Degree Days 34 31  
Month to date heating degree days 62  
Since 1 July heating degree days 1279  
Cooling Degree Days 0 0  
Month to date cooling degree days 0  
Year to date cooling degree days 809  
Moisture  
Dew Point 29 °F    
Average Humidity 86    
Maximum Humidity 93    
Minimum Humidity 75    
Precipitation  
Precipitation 0.00 in 0.09 in 1.53 in (1967)
Month to date precipitation 0.19  
Year to date precipitation 35.76  
Snow  
Snow 0.00 in 0.10 in 5.70 in (1964)
Month to date snowfall 0.3  
Since 1 July snowfall 2.4  
Snow Depth -    
Sea Level Pressure  
Sea Level Pressure 29.90 in    
Wind  
Wind Speed 3 mph (East)    
Max Wind Speed 10 mph    
Max Gust Speed -    
Visibility 6 miles    
Events Snow    
T = Trace of Precipitation, MM = Missing Value Source: NWS Daily Summary

Daily Weather History Graph

Daily Weather History Graph

Search for Another Location

Airport or City:

Trip Planner

Search our weather history database for the weather conditions in past years. The results will help you decide how hot, cold, wet, or windy it might be!

Date:

Astronomy

Dec. 02, 2013 Rise Set
Actual Time 7:47 AM EST 5:11 PM EST
Civil Twilight 7:17 AM EST 5:42 PM EST
Nautical Twilight 6:42 AM EST 6:16 PM EST
Astronomical Twilight 6:09 AM EST 6:49 PM EST
Moon 7:11 AM EST (12/2) 5:14 PM EST (12/2)
Length of Visible Light 10h 25m
Length of Day
9h 23m
Waning Crescent, 0% of the Moon is Illuminated
Dec 2
Waning Crescent
Dec 2
New
Dec 9
First Quarter
Dec 17
Full
Dec 25
Last Quarter

Hourly Weather History & Observations

Time (EST) Temp. Windchill Dew Point Humidity Pressure Visibility Wind Dir Wind Speed Gust Speed Precip Events Conditions
12:15 AM 28.4 °F - 24.8 °F 86% 29.99 in 2.0 mi Calm Calm - N/A   Clear
12:35 AM 28.4 °F - 26.6 °F 93% 29.98 in 3.0 mi Calm Calm - N/A   Clear
12:55 AM 28.4 °F - 26.6 °F 93% 29.97 in 2.5 mi Calm Calm - N/A   Clear
1:35 AM 28.4 °F - 24.8 °F 86% 29.96 in 1.5 mi Calm Calm - N/A   Mist
1:55 AM 28.4 °F - 26.6 °F 93% 29.96 in 2.0 mi Calm Calm - N/A   Clear
2:15 AM 26.6 °F - 23.0 °F 86% 29.96 in 4.0 mi Calm Calm - N/A   Clear
2:35 AM 26.6 °F - 23.0 °F 86% 29.95 in 4.0 mi Calm Calm - N/A   Clear
2:55 AM 26.6 °F - 24.8 °F 93% 29.96 in 3.0 mi Calm Calm - N/A   Clear
3:15 AM 28.4 °F - 26.6 °F 93% 29.96 in 2.5 mi Calm Calm - N/A   Clear
3:35 AM 26.6 °F - 24.8 °F 93% 29.96 in 2.5 mi Calm Calm - N/A   Clear
3:55 AM 26.6 °F - 23.0 °F 86% 29.96 in 3.0 mi Calm Calm - N/A   Clear
4:15 AM 26.6 °F - 23.0 °F 86% 29.96 in 3.0 mi Calm Calm - N/A   Scattered Clouds
4:35 AM 26.6 °F - 23.0 °F 86% 29.95 in 4.0 mi Calm Calm - N/A   Overcast
4:55 AM 28.4 °F - 24.8 °F 86% 29.95 in 4.0 mi Calm Calm - N/A   Overcast
5:15 AM 28.4 °F - 26.6 °F 93% 29.95 in 3.0 mi Calm Calm - N/A   Overcast
5:35 AM 28.4 °F - 26.6 °F 93% 29.95 in 3.0 mi Calm Calm - N/A   Overcast
6:15 AM 28.4 °F - 26.6 °F 93% 29.94 in 2.5 mi Calm Calm - N/A   Overcast
6:35 AM 30.2 °F - 28.4 °F 93% 29.94 in 2.5 mi Calm Calm - N/A   Overcast
6:55 AM 30.2 °F - 28.4 °F 93% 29.95 in 2.5 mi Calm Calm - N/A   Overcast
7:15 AM 30.2 °F - 28.4 °F 93% 29.93 in 2.5 mi Calm Calm - N/A   Overcast
7:35 AM 30.2 °F 26.7 °F 28.4 °F 93% 29.93 in 2.5 mi NE 3.5 mph - N/A   Overcast
7:55 AM 30.2 °F - 28.4 °F 93% 29.93 in 2.5 mi Calm Calm - N/A   Overcast
8:15 AM 32.0 °F 28.7 °F 28.4 °F 87% 29.93 in 2.0 mi East 3.5 mph - N/A   Overcast
8:35 AM 32.0 °F 27.5 °F 30.2 °F 93% 29.93 in 1.5 mi ENE 4.6 mph - N/A   Overcast
8:55 AM 32.0 °F 27.5 °F 30.2 °F 93% 29.92 in 1.2 mi ENE 4.6 mph - N/A   Overcast
9:15 AM 32.0 °F 27.5 °F 30.2 °F 93% 29.93 in 1.8 mi East 4.6 mph - N/A   Overcast
9:35 AM 32.0 °F 27.5 °F 30.2 °F 93% 29.93 in 2.0 mi ENE 4.6 mph - N/A   Overcast
9:55 AM 32.0 °F 26.4 °F 30.2 °F 93% 29.92 in 2.0 mi ENE 5.8 mph - N/A   Overcast
10:15 AM 32.0 °F 25.6 °F 30.2 °F 93% 29.93 in 3.0 mi East 6.9 mph - N/A   Overcast
10:35 AM 32.0 °F 24.8 °F 30.2 °F 93% 29.93 in 3.0 mi East 8.1 mph - N/A   Overcast
10:55 AM 32.0 °F 25.6 °F 30.2 °F 93% 29.93 in 4.0 mi ENE 6.9 mph - N/A   Overcast
11:15 AM 32.0 °F 27.5 °F 30.2 °F 93% 29.93 in 4.0 mi East 4.6 mph - N/A   Overcast
11:35 AM 33.8 °F 27.7 °F 32.0 °F 93% 29.91 in 5.0 mi East 6.9 mph - N/A   Overcast
11:55 AM 33.8 °F 27.7 °F 32.0 °F 93% 29.91 in 5.0 mi ENE 6.9 mph - N/A   Overcast
12:15 PM 33.8 °F 27.7 °F 32.0 °F 93% 29.91 in 7.0 mi East 6.9 mph - N/A   Overcast
12:35 PM 33.8 °F 28.6 °F 32.0 °F 93% 29.91 in 7.0 mi East 5.8 mph - N/A   Overcast
12:55 PM 35.6 °F 30.7 °F 30.2 °F 81% 29.90 in 10.0 mi East 5.8 mph - N/A   Overcast
1:15 PM 35.6 °F 30.7 °F 30.2 °F 81% 29.89 in 10.0 mi East 5.8 mph - N/A   Mostly Cloudy
1:35 PM 37.4 °F 33.8 °F 30.2 °F 75% 29.88 in 10.0 mi ESE 4.6 mph - N/A   Mostly Cloudy
1:55 PM 37.4 °F 31.4 °F 30.2 °F 75% 29.87 in 10.0 mi ENE 8.1 mph - N/A   Scattered Clouds
2:15 PM 37.4 °F 32.1 °F 30.2 °F 75% 29.87 in 10.0 mi ESE 6.9 mph - N/A   Scattered Clouds
2:35 PM 37.4 °F 33.8 °F 30.2 °F 75% 29.86 in 10.0 mi ESE 4.6 mph - N/A   Scattered Clouds
2:55 PM 37.4 °F 34.9 °F 30.2 °F 75% 29.86 in 10.0 mi SE 3.5 mph - N/A   Scattered Clouds
3:15 PM 37.4 °F - 30.2 °F 75% 29.86 in 10.0 mi Calm Calm - N/A   Mostly Cloudy
3:35 PM 37.4 °F 32.1 °F 30.2 °F 75% 29.85 in 10.0 mi ESE 6.9 mph - N/A   Overcast
3:55 PM 37.4 °F 32.8 °F 30.2 °F 75% 29.85 in 10.0 mi East 5.8 mph - N/A   Overcast
4:15 PM 35.6 °F 30.7 °F 30.2 °F 81% 29.85 in 10.0 mi East 5.8 mph - N/A   Overcast
4:35 PM 35.6 °F 31.7 °F 30.2 °F 81% 29.85 in 10.0 mi East 4.6 mph - N/A   Mostly Cloudy
4:55 PM 35.6 °F 31.7 °F 28.4 °F 75% 29.85 in 10.0 mi East 4.6 mph - N/A   Mostly Cloudy
5:15 PM 33.8 °F 28.6 °F 28.4 °F 81% 29.85 in 10.0 mi East 5.8 mph - N/A   Mostly Cloudy
5:35 PM 35.6 °F 30.7 °F 28.4 °F 75% 29.85 in 10.0 mi East 5.8 mph - N/A   Scattered Clouds
5:55 PM 33.8 °F 29.6 °F 28.4 °F 81% 29.85 in 10.0 mi East 4.6 mph - N/A   Scattered Clouds
6:15 PM 35.6 °F 32.8 °F 28.4 °F 75% 29.86 in 10.0 mi ESE 3.5 mph - N/A   Mostly Cloudy
6:35 PM 33.8 °F 28.6 °F 28.4 °F 81% 29.85 in 10.0 mi East 5.8 mph - N/A   Scattered Clouds
6:55 PM 35.6 °F 30.7 °F 28.4 °F 75% 29.86 in 10.0 mi East 5.8 mph - N/A   Scattered Clouds
7:15 PM 35.6 °F 29.9 °F 28.4 °F 75% 29.86 in 10.0 mi ESE 6.9 mph - N/A   Overcast
7:35 PM 33.8 °F 27.0 °F 28.4 °F 81% 29.86 in 10.0 mi East 8.1 mph - N/A   Overcast
7:55 PM 33.8 °F 27.7 °F 28.4 °F 81% 29.86 in 10.0 mi East 6.9 mph - N/A   Overcast
8:35 PM 33.8 °F 27.7 °F 28.4 °F 81% 29.85 in 10.0 mi East 6.9 mph - N/A   Overcast
8:55 PM 33.8 °F 27.7 °F 28.4 °F 81% 29.86 in 10.0 mi East 6.9 mph - N/A   Overcast
9:15 PM 33.8 °F 27.7 °F 30.2 °F 87% 29.86 in 5.0 mi East 6.9 mph - N/A Snow Light Snow
9:35 PM 33.8 °F 28.6 °F 30.2 °F 87% 29.86 in 3.0 mi East 5.8 mph - N/A Snow Light Snow
9:55 PM 33.8 °F 27.7 °F 30.2 °F 87% 29.87 in 4.0 mi East 6.9 mph - N/A Snow Light Snow
10:15 PM 33.8 °F 27.0 °F 30.2 °F 87% 29.87 in 5.0 mi East 8.1 mph - N/A   Overcast
10:35 PM 33.8 °F 27.7 °F 30.2 °F 87% 29.86 in 5.0 mi East 6.9 mph - N/A Snow Light Snow
10:55 PM 33.8 °F 27.7 °F 30.2 °F 87% 29.86 in 7.0 mi East 6.9 mph - N/A Snow Light Snow
11:15 PM 33.8 °F 26.4 °F 32.0 °F 93% 29.86 in 7.0 mi East 9.2 mph - N/A   Overcast
11:35 PM 33.8 °F 26.4 °F 32.0 °F 93% 29.85 in 7.0 mi East 9.2 mph - N/A   Overcast
11:55 PM 33.8 °F 25.8 °F 30.2 °F 87% 29.85 in 10.0 mi East 10.4 mph - N/A   Mostly Cloudy